Weather History for K7BM - March, 2013

Change the Weather History Date:

Monday, March 4, 2013

  Actual Average Record
Temperature  
Mean Temperature 26 °F -  
Max Temperature 35 °F - - ()
Min Temperature 17 °F - - ()
Degree Days  
Heating Degree Days 39    
Moisture  
Dew Point 16 °F    
Average Humidity 66    
Maximum Humidity 93    
Minimum Humidity 22    
Precipitation  
Precipitation 0.00 in - - ()
Sea Level Pressure  
Sea Level Pressure 29.88 in    
Wind  
Wind Speed 6 mph (WNW)    
Max Wind Speed 29 mph    
Max Gust Speed 44 mph    
Visibility 6 miles    
Events Fog , Snow    
T = Trace of Precipitation, MM = Missing Value Source: NWS Daily Summary

Daily Weather History Graph

Daily Weather History Graph

Search for Another Location

Airport or City:

Trip Planner

Search our weather history database for the weather conditions in past years. The results will help you decide how hot, cold, wet, or windy it might be!

Date:

Astronomy

Mar. 04, 2013 Rise Set
Actual Time 6:32 AM MST 6:01 PM MST
Civil Twilight 6:05 AM MST 6:27 PM MST
Nautical Twilight 5:34 AM MST 6:58 PM MST
Astronomical Twilight 5:04 AM MST 7:29 PM MST
Moon 12:42 AM MST (3/4) 10:48 AM MST (3/4)
Length of Visible Light 12h 22m
Length of Day
11h 28m
Waning Gibbous, 51% of the Moon is Illuminated
Mar 4
Waning Gibbous
Mar 4
Last Quarter
Mar 11
New
Mar 19
First Quarter
Mar 27
Full

Hourly Weather History & Observations

Time (MST) Temp. Windchill Dew Point Humidity Pressure Visibility Wind Dir Wind Speed Gust Speed Precip Events Conditions
12:16 AM 30.2 °F 25.4 °F 28.4 °F 93% 29.85 in 1.0 mi WNW 4.6 mph - N/A Snow Light Snow
12:36 AM 30.2 °F 26.7 °F 28.4 °F 93% 29.84 in 1.2 mi NNW 3.5 mph - N/A Snow Light Snow
12:54 AM 30.2 °F 26.7 °F 28.4 °F 93% 29.84 in 2.0 mi WNW 3.5 mph - N/A Snow Light Snow
1:10 AM 32.0 °F - 28.4 °F 87% 29.84 in 5.0 mi Calm Calm - N/A Snow Light Snow
1:36 AM 32.0 °F - 28.4 °F 87% 29.84 in 1.5 mi Calm Calm - N/A Snow Light Snow
1:56 AM 30.2 °F 25.4 °F 28.4 °F 93% 29.84 in 1.0 mi SW 4.6 mph - N/A Snow Snow
2:16 AM 30.2 °F - 28.4 °F 93% 29.83 in 0.8 mi Calm Calm - N/A Snow Snow
2:29 AM 30.2 °F 26.7 °F 28.4 °F 93% 29.83 in 1.8 mi WNW 3.5 mph - N/A Snow Light Snow
2:52 AM 30.2 °F - 28.4 °F 93% 29.81 in 1.8 mi Calm Calm - N/A Snow Light Snow
3:16 AM 30.2 °F - 28.4 °F 93% 29.81 in 1.8 mi Calm Calm - N/A Snow Light Snow
3:36 AM 30.2 °F - 28.4 °F 93% 29.82 in 2.5 mi Calm Calm - N/A Snow Light Snow
3:55 AM 30.2 °F - 28.4 °F 93% 29.81 in 1.0 mi Calm Calm - N/A Snow Light Snow
4:16 AM 30.2 °F - 28.4 °F 93% 29.81 in 2.0 mi Calm Calm - N/A Snow Light Snow
4:35 AM 30.2 °F - 28.4 °F 93% 29.81 in 3.0 mi Calm Calm - N/A Snow Light Snow
4:53 AM 30.2 °F - 28.4 °F 93% 29.80 in 7.0 mi Calm Calm - N/A Snow Light Snow
5:16 AM 30.2 °F - 28.4 °F 93% 29.80 in 7.0 mi Calm Calm - N/A   Overcast
5:36 AM 30.2 °F - 28.4 °F 93% 29.81 in 0.2 mi Calm Calm - N/A Fog Light Freezing Fog
5:56 AM 30.2 °F - 28.4 °F 93% 29.81 in 0.5 mi Calm Calm - N/A Snow Light Snow
6:10 AM 30.2 °F - 28.4 °F 93% 29.80 in 0.5 mi Calm Calm - N/A Fog Light Freezing Fog
6:30 AM 30.2 °F - 28.4 °F 93% 29.80 in 0.8 mi Calm Calm - N/A   Overcast
6:56 AM 30.2 °F - 26.6 °F 86% 29.80 in 10.0 mi Calm Calm - N/A   Overcast
7:16 AM 30.2 °F - 28.4 °F 93% 29.81 in 0.2 mi Calm Calm - N/A Fog Light Freezing Fog
7:36 AM 30.2 °F - 28.4 °F 93% 29.80 in 10.0 mi Calm Calm - N/A   Mostly Cloudy
7:55 AM 30.2 °F - 28.4 °F 93% 29.81 in 2.0 mi Calm Calm - N/A   Overcast
8:10 AM 32.0 °F - 28.4 °F 87% 29.81 in 4.0 mi Calm Calm - N/A   Mostly Cloudy
8:36 AM 32.0 °F - 28.4 °F 87% 29.81 in 10.0 mi Calm Calm - N/A   Overcast
8:51 AM 32.0 °F - 28.4 °F 87% 29.81 in 10.0 mi Calm Calm - N/A   Overcast
9:16 AM 32.0 °F - 30.2 °F 93% 29.82 in 10.0 mi Calm Calm - N/A   Overcast
9:36 AM 32.0 °F - 28.4 °F 87% 29.81 in 10.0 mi Calm Calm - N/A Snow Light Snow
9:56 AM 32.0 °F - 28.4 °F 87% 29.81 in 10.0 mi Calm Calm - N/A   Overcast
10:13 AM 33.8 °F 27.7 °F 26.6 °F 75% 29.81 in 10.0 mi WNW 6.9 mph - N/A   Overcast
10:31 AM 33.8 °F 25.8 °F 21.2 °F 60% 29.80 in 10.0 mi West 10.4 mph 18.4 mph N/A   Overcast
10:56 AM 35.6 °F 27.5 °F 17.6 °F 48% 29.79 in 10.0 mi West 11.5 mph 26.5 mph N/A   Mostly Cloudy
11:10 AM 35.6 °F 24.5 °F 19.4 °F 52% 29.79 in 10.0 mi WSW 20.7 mph 28.8 mph N/A   Overcast
11:53 AM 33.8 °F 21.9 °F 17.6 °F 52% 29.79 in 10.0 mi West 21.9 mph 34.5 mph N/A   Scattered Clouds
12:16 PM 33.8 °F 21.9 °F 17.6 °F 52% 29.79 in 10.0 mi WSW 21.9 mph 35.7 mph N/A   Scattered Clouds
12:36 PM 32.0 °F 23.6 °F 23.0 °F 69% 29.78 in 1.5 mi West 10.4 mph 26.5 mph N/A Snow Light Snow
12:56 PM 35.6 °F 25.2 °F 14.0 °F 41% 29.77 in 10.0 mi WSW 18.4 mph 35.7 mph N/A   Overcast
1:16 PM 35.6 °F 24.2 °F 12.2 °F 38% 29.76 in 10.0 mi West 21.9 mph 42.6 mph N/A   Overcast
1:31 PM 33.8 °F 20.3 °F 10.4 °F 38% 29.75 in 10.0 mi West 28.8 mph 40.3 mph N/A   Overcast
1:51 PM 35.6 °F 24.0 °F 8.6 °F 33% 29.75 in 10.0 mi WSW 23.0 mph 42.6 mph N/A   Mostly Cloudy
2:15 PM 33.8 °F 23.2 °F 10.4 °F 38% 29.76 in 10.0 mi WNW 17.3 mph 34.5 mph N/A   Scattered Clouds
2:35 PM 32.0 °F 22.5 °F 15.8 °F 51% 29.77 in 7.0 mi NW 12.7 mph 26.5 mph N/A Snow Light Snow
2:56 PM 32.0 °F 27.5 °F 21.2 °F 64% 29.80 in 7.0 mi NNW 4.6 mph - N/A   Overcast
3:16 PM 28.4 °F 20.4 °F 24.8 °F 86% 29.81 in 0.2 mi North 8.1 mph 18.4 mph N/A Snow Heavy Snow
3:30 PM 28.4 °F 21.2 °F 24.8 °F 86% 29.84 in 0.2 mi North 6.9 mph - N/A Snow Snow
3:52 PM 28.4 °F 19.1 °F 21.2 °F 74% 29.85 in 0.2 mi West 10.4 mph 19.6 mph N/A Snow Light Snow
4:16 PM 26.6 °F 16.8 °F 19.4 °F 74% 29.88 in 0.8 mi WNW 10.4 mph 26.5 mph N/A Snow Light Snow
4:36 PM 26.6 °F 13.8 °F 17.6 °F 69% 29.89 in 5.0 mi West 17.3 mph 24.2 mph N/A Snow Light Snow
4:56 PM 26.6 °F 14.3 °F 14.0 °F 59% 29.93 in 4.0 mi West 16.1 mph 26.5 mph N/A Snow Light Snow
5:15 PM 24.8 °F 13.4 °F 17.6 °F 74% 29.94 in 0.8 mi WNW 12.7 mph 24.2 mph N/A Snow Light Snow
5:35 PM 24.8 °F - 17.6 °F 74% 29.97 in 10.0 mi Calm Calm - N/A   Overcast
5:56 PM 23.0 °F 13.9 °F 10.4 °F 59% 29.98 in 7.0 mi North 8.1 mph 20.7 mph N/A   Scattered Clouds
6:16 PM 23.0 °F 8.7 °F 5.0 °F 46% 30.00 in 10.0 mi West 18.4 mph 26.5 mph N/A   Clear
6:36 PM 23.0 °F 12.4 °F 1.4 °F 39% 30.01 in 10.0 mi NW 10.4 mph 28.8 mph N/A   Clear
6:56 PM 23.0 °F 12.4 °F -0.4 °F 36% 30.02 in 10.0 mi WNW 10.4 mph 24.2 mph N/A   Clear
7:16 PM 23.0 °F 10.1 °F -4.0 °F 31% 30.02 in 10.0 mi WNW 15.0 mph 34.5 mph N/A   Clear
7:36 PM 21.2 °F 5.6 °F -4.0 °F 33% 30.00 in 10.0 mi WNW 20.7 mph 43.7 mph N/A   Clear
7:53 PM 21.2 °F 4.5 °F -4.0 °F 33% 30.02 in 7.0 mi West 24.2 mph 35.7 mph N/A   Clear
8:16 PM 21.2 °F 3.5 °F -4.0 °F 33% 30.02 in 10.0 mi West 27.6 mph 42.6 mph N/A   Clear
8:35 PM 21.2 °F 7.3 °F -7.6 °F 28% 30.03 in 10.0 mi West 16.1 mph 41.4 mph N/A   Clear
8:56 PM 21.2 °F 5.6 °F -7.6 °F 28% 30.03 in 10.0 mi West 20.7 mph 35.7 mph N/A   Clear
9:12 PM 21.2 °F 8.3 °F -9.4 °F 26% 30.05 in 10.0 mi West 13.8 mph 33.4 mph N/A   Clear
9:36 PM 21.2 °F 12.6 °F -9.4 °F 26% 30.08 in 10.0 mi West 6.9 mph 23.0 mph N/A   Clear
9:55 PM 21.2 °F 10.1 °F -13.0 °F 22% 30.09 in 10.0 mi NW 10.4 mph 26.5 mph N/A   Clear
10:15 PM 21.2 °F 9.5 °F -13.0 °F 22% 30.10 in 10.0 mi West 11.5 mph 26.5 mph N/A   Clear
10:36 PM 19.4 °F 11.5 °F -9.4 °F 28% 30.10 in 10.0 mi North 5.8 mph - N/A   Clear
10:50 PM 19.4 °F 10.4 °F -13.0 °F 23% 30.09 in 10.0 mi North 6.9 mph - N/A   Clear
11:16 PM 17.6 °F - -5.8 °F 35% 30.09 in 10.0 mi Calm Calm - N/A   Clear
11:36 PM 17.6 °F 9.3 °F -0.4 °F 45% 30.09 in 10.0 mi SSE 5.8 mph - N/A   Clear
11:56 PM 17.6 °F 7.3 °F -4.0 °F 38% 30.08 in 10.0 mi SSE 8.1 mph - N/A   Clear